Location: Fort Wayne
(41.1310°N, 85.1290°W)
Time: 21:04:30
(UTC-04:00)

Tiros 1 despin weight - Visible Passes

Search period start: 25 October 2014 00:00
Search period end: 03 November 2014 23:00
Orbit: 601 x 652 km, 48.2° (Epoch: 24 October)

Date Brightness Start Highest point End Pass type
(mag) Time Alt. Az. Time Alt. Az. Time Alt. Az.
27 Oct ? 06:52:48 10° S 06:56:08 19° SE 06:59:26 10° E visible
28 Oct ? 07:10:41 10° SSW 07:15:00 37° SE 07:19:18 10° ENE visible
29 Oct ? 05:50:25 10° SSE 05:52:53 14° SE 05:55:21 10° E visible
29 Oct ? 07:29:21 10° SW 07:34:01 70° SSE 07:38:39 10° ENE visible
30 Oct ? 06:08:44 15° S 06:11:41 28° SE 06:15:41 10° E visible
31 Oct ? 06:27:53 23° SSW 06:30:37 54° SE 06:35:11 10° ENE visible
01 Nov ? 05:09:35 19° ESE 05:09:35 19° ESE 05:11:54 10° E visible
01 Nov ? 06:46:51 24° WSW 06:49:41 87° NNW 06:54:23 10° ENE visible
02 Nov ? 04:28:24 34° ESE 04:28:24 34° ESE 04:31:36 10° ENE visible
02 Nov ? 06:05:39 19° W 06:08:54 56° NNW 06:13:30 10° ENE visible
03 Nov ? 04:47:04 57° E 04:47:04 57° E 04:50:53 10° ENE visible
03 Nov ? 06:24:18 13° W 06:28:13 41° NNW 06:32:38 10° ENE visible
